CZ-2D DEB (53319 NORAD) Tracking and Keplerian Element Data

This shows tracking and keplerian element data for the satellite.

Feedback or suggestion? Click here.




ElementValue
Catalog53319
NameCZ-2D DEB
Epoch Orbit397
Epoch Day236.62093869
Epoch Year2022
RAAN320.444
Inclination34.9972
Eccentricity0.0006732
Argument of Perigee147.3843
Mean Anonmoly322.1043
Mean Motion15.2518736
Decay Rate0.00013413
L11 53319U 22088D 22236.62093869 .00013413 00000+0 52177-3 0 9995
L22 53319 34.9972 320.4440 0006732 147.3843 322.1043 15.25187360 3974

Live tracking and technical data element details for CZ-2D DEB (NORAD 53319). CZ-2D DEB can be tracked NOW for your location showing map with azimuth and elevation plus other details from your city location.

Track the satellite on the map from your city or location and see movement details for azimuth, elevation, latitude, longitude, range, height, and movement on the map or in text.







IsCatalogInMostPopularTable: catalog: 53319, numindb: 3
Update: records affected: 1



GetName: 53319 CZ-2D DEB

Hit Count: updated at: Wed, 28 Sep 2022 23:41:45 GMT